LKMT Weather Reports


Display with metric or nautical units.
time (UTC)temp
F
wind
direction
speed
MPH
gust
MPH
rain 1hr
in
rain 24hr
in
rain mn
in
humidity
%
barometer
mb
20260505010232 50 0 1.0 0.0 0.00 0.00 0.00 61 1012.0
20260505003224 50 0 1.0 0.0 0.00 0.00 0.00 66 1012.0
20260505002156 52 0 2.0 0.0 0.00 0.00 0.00 57
20260505000233 50 0 1.0 0.0 0.00 0.00 0.00 66 1012.0
20260504233224 52 0 1.0 0.0 0.00 0.00 0.00 62 1012.0
20260504232228 50 0 0.0 0.0 0.00 0.00 0.00 66
20260504230240 50 0 0.0 0.0 0.00 0.00 0.00 61 1013.0
20260504223230 54 0 1.0 0.0 0.00 0.00 0.00 58 1013.0
20260504222156 55 0 2.0 0.0 0.00 0.00 0.00 50
20260504220240 55 0 2.0 0.0 0.00 0.00 0.00 50 1013.0
20260504213224 52 70 3.0 0.0 0.00 0.00 0.00 57 1013.0
20260504212156 59 80 2.0 0.0 0.00 0.00 0.00 38
20260504210235 59 0 2.0 0.0 0.00 0.00 0.00 41 1013.0
20260504203223 59 210 6.0 0.0 0.00 0.00 0.00 38 1013.0
20260504202155 61 210 5.0 0.0 0.00 0.00 0.00 36
20260504200234 61 200 5.0 0.0 0.00 0.00 0.00 33 1013.0
20260504193224 63 200 5.0 0.0 0.00 0.00 0.00 31 1013.0
20260504192157 68 200 5.0 0.0 0.00 0.00 0.00 22
20260504190241 68 190 5.0 0.0 0.00 0.00 0.00 24 1013.0
20260504183231 68 210 12.0 0.0 0.00 0.00 0.00 26 1013.0
20260504182158 70 200 9.0 0.0 0.00 0.00 0.00 22
20260504180233 70 200 9.0 0.0 0.00 0.00 0.00 24 1013.0
20260504173231 72 200 10.0 0.0 0.00 0.00 0.00 23 1012.0
20260504172159 75 180 9.0 0.0 0.00 0.00 0.00 22
20260504170233 73 180 9.0 0.0 0.00 0.00 0.00 25 1012.0
20260504160241 75 180 9.0 0.0 0.00 0.00 0.00 25 1012.0
20260504150232 75 200 13.0 0.0 0.00 0.00 0.00 29 1013.0
20260504140233 75 210 16.0 0.0 0.00 0.00 0.00 31 1013.0
20260504130247 75 200 15.0 0.0 0.00 0.00 0.00 31 1014.0
20260504120240 75 200 17.0 0.0 0.00 0.00 0.00 29 1014.0
20260504110240 75 210 20.0 0.0 0.00 0.00 0.00 33 1015.0
20260504100233 73 220 20.0 0.0 0.00 0.00 0.00 33 1015.0
20260504080239 68 190 14.0 0.0 0.00 0.00 0.00 34 1015.0
20260504070230 66 190 16.0 0.0 0.00 0.00 0.00 34 1015.0
20260504060241 64 200 18.0 0.0 0.00 0.00 0.00 39 1015.0
20260504050245 59 220 12.0 0.0 0.00 0.00 0.00 44 1016.0
20260504043223 57 220 10.0 0.0 0.00 0.00 0.00 47 1015.0
20260504042157 55 240 7.0 0.0 0.00 0.00 0.00 47
20260504040233 48 240 8.0 0.0 0.00 0.00 0.00 61 1015.0
20260504033230 48 240 7.0 0.0 0.00 0.00 0.00 57 1015.0
20260504032155 50 250 9.0 0.0 0.00 0.00 0.00 53
20260504030232 46 250 8.0 0.0 0.00 0.00 0.00 61 1015.0
20260504023223 50 260 10.0 0.0 0.00 0.00 0.00 57 1015.0
20260504022158 57 240 7.0 0.0 0.00 0.00 0.00 38
20260504020240 50 250 7.0 0.0 0.00 0.00 0.00 53 1015.0
20260504013224 48 260 9.0 0.0 0.00 0.00 0.00 61 1015.0
20260504012155 48 0 5.0 0.0 0.00 0.00 0.00 57